This is the latest recevied weather packets stored in our database for station/object 4S6DRJ-13. If no packets are shown the sender has not sent any weather packets the latest 10 day(s).
| Time | Temp. | Humidity | Pressure | Rain* | Wind** | Luminosity | Snow |
|---|---|---|---|---|---|---|---|
| 1788145295 | 28.89° C | 80% | 1010.3 hPa | 0 mm | 0.89 m/s, 348° | 124 W/m² | - |
| 1788145233 | 28.89° C | 80% | 1010.2 hPa | 0 mm | 2.24 m/s, 287° | 116 W/m² | - |
| 1788145172 | 28.89° C | 80% | 1010.4 hPa | 0 mm | 0.89 m/s, 234° | 124 W/m² | - |
| 1788145112 | 28.89° C | 80% | 1010.4 hPa | 0 mm | 2.24 m/s, 320° | 141 W/m² | - |
| 1788145051 | 29.44° C | 80% | 1010.5 hPa | 0 mm | 1.79 m/s, 352° | 147 W/m² | - |
| 1788144989 | 29.44° C | 80% | 1010.3 hPa | 0 mm | 0.45 m/s, 225° | 151 W/m² | - |
| 1788144928 | 29.44° C | 80% | 1010.3 hPa | 0 mm | 0.45 m/s, 216° | 143 W/m² | - |
| 1788144867 | 29.44° C | 80% | 1010.1 hPa | 0 mm | 0 m/s | 137 W/m² | - |
| 1788144806 | 29.44° C | 80% | 1010.4 hPa | 0 mm | 0.45 m/s, 242° | 187 W/m² | - |
| 1788144746 | 29.44° C | 79% | 1010.3 hPa | 0 mm | 1.34 m/s, 320° | 245 W/m² | - |
| 1788144684 | 29.44° C | 79% | 1010.1 hPa | 0 mm | 1.34 m/s, 250° | 256 W/m² | - |
| 1788144623 | 29.44° C | 79% | 1010.3 hPa | 0 mm | 1.79 m/s, 278° | 235 W/m² | - |
| 1788144563 | 29.44° C | 80% | 1010.2 hPa | 0 mm | 0.45 m/s, 213° | 208 W/m² | - |
| 1788144501 | 29.44° C | 79% | 1010.3 hPa | 0 mm | 0.45 m/s, 285° | 161 W/m² | - |
| 1788144440 | 29.44° C | 79% | 1010.3 hPa | 0 mm | 0.45 m/s, 295° | 137 W/m² | - |
| 1788144379 | 29.44° C | 79% | 1010.1 hPa | 0 mm | 0.45 m/s, 247° | 137 W/m² | - |
| 1788144318 | 29.44° C | 79% | 1010.1 hPa | 0 mm | 0.45 m/s, 315° | 165 W/m² | - |
| 1788144257 | 29.44° C | 78% | 1010.1 hPa | 0 mm | 0.89 m/s, 173° | 155 W/m² | - |
| 1788144196 | 29.44° C | 78% | 1010.2 hPa | 0 mm | 0.89 m/s, 190° | 149 W/m² | - |
| 1788144136 | 29.44° C | 78% | 1010.3 hPa | 0 mm | 1.79 m/s, 257° | 261 W/m² | - |
| 1788144074 | 29.44° C | 78% | 1010.2 hPa | 0 mm | 0.89 m/s, 234° | 388 W/m² | - |
| 1788144014 | 29.44° C | 79% | 1009.9 hPa | 0 mm | 1.34 m/s, 229° | 355 W/m² | - |
| 1788143952 | 29.44° C | 79% | 1010.2 hPa | 0 mm | 0.45 m/s, 274° | 476 W/m² | - |
| 1788143891 | 28.89° C | 80% | 1010.1 hPa | 0 mm | 0 m/s | 442 W/m² | - |
| 1788143830 | 28.89° C | 80% | 1010 hPa | 0 mm | 0.45 m/s, 212° | 434 W/m² | - |
* Rain latest hour (hover to see other rain measurements)
** Current wind speed in m/s (hover to see current wind gust speed)